Regional Weather Roundup
Issued by NWS

Home | Current Version | Previous Version | Graphics & Text | Print | Product List | Glossary On
Versions: 1 2 3 4 5 6 7 8 9 10 11 12 13 14 15 16 17 18 19 20 21 22 23 24 25 26 27 28 29 30 31 32 33 34 35 36 37 38 39 40 41 42 43 44 45 46 47 48 49 50
000
ASUS43 KFSD 010010
RWRSD

WEATHER ROUNDUP FOR SOUTH DAKOTA
NATIONAL WEATHER SERVICE SIOUX FALLS SD
700 PM CDT THU JUL 31 2014

NOTE: "FAIR" INDICATES FEW OR NO CLOUDS BELOW 12,000 FEET WITH NO
SIGNIFICANT WEATHER AND/OR OBSTRUCTIONS TO VISIBILITY.


SDZ001>005-009-010-012>017-010100-
NORTHWEST AND NORTH CENTRAL SOUTH DAKOTA

CITY           SKY/WX    TMP DP  RH WIND       PRES   REMARKS
BUFFALO          N/A     84  43  23 SW13      30.02F
FAITH            N/A     86  48  26 N12       30.06F
MOBRIDGE       SUNNY     84  52  33 NE7       30.01F
$$

SDZ012>016-024>037-041>051-057-063-072>074-010100-
SOUTHWEST AND SOUTH CENTRAL SOUTH DAKOTA

CITY           SKY/WX    TMP DP  RH WIND       PRES   REMARKS
RAPID CTY ARPT PTSUNNY   83  53  35 SW10      30.10F
PIERRE         SUNNY     86  53  32 NW8       30.01F
CUSTER         CLOUDY    60  57  89 S3        30.27F
ELLSWORTH AFB  MOSUNNY   85  49  29 SW9       30.10F
PHILIP         MOSUNNY   90  47  22 NE13      30.03F
PINE RIDGE     MOSUNNY   81  50  33 N9        30.12F
WINNER         FAIR      87  51  28 NE7       30.03F
$$

SDZ004>011-016>023-039-040-010100-
NORTHEAST SOUTH DAKOTA

CITY           SKY/WX    TMP DP  RH WIND       PRES   REMARKS
ABERDEEN       SUNNY     78  55  44 E7        30.03F
WATERTOWN      SUNNY     77  54  44 N8        30.04F
SISSETON         N/A     81  60  48 CALM      30.01F
$$

SDZ017-020-022-023-036>040-048>070-010100-
SOUTHEAST SOUTH DAKOTA

CITY           SKY/WX    TMP DP  RH WIND       PRES   REMARKS
SIOUX FALLS    MOSUNNY   72  62  71 W5        30.04F
HURON          SUNNY     81  52  36 N7        30.02F
CHAMBERLAIN    SUNNY     82  57  41 E10       30.03S
MITCHELL       SUNNY     82  60  47 CALM      30.03F
YANKTON        SUNNY     75  59  57 E6        30.05S
$$

ABBREVIATIONS USED IN REMARKS
   TC - TEMPERATURE IN CELSIUS
  WCI - WIND CHILL INDEX
   HX - HEAT INDEX
  VSB - VISIBILITY




USA.gov is the U.S. government's official web portal to all federal, state and local government web resources and services.